TimeCST,TemperatureF,Dew PointF,Humidity,Sea Level PressureIn,VisibilityMPH,Wind Direction,Wind SpeedMPH,Gust SpeedMPH,PrecipitationIn,Events,Conditions,WindDirDegrees,DateUTC
12:53 AM,30.0,24.1,79,30.17,10.0,Calm,Calm,-,N/A,,Scattered Clouds,0,2013-03-03 06:53:00
1:53 AM,28.4,24.8,86,30.12,10.0,South,6.9,-,N/A,,Scattered Clouds,180,2013-03-03 07:53:00
2:53 AM,28.0,24.1,85,30.12,10.0,South,5.8,-,N/A,,Partly Cloudy,180,2013-03-03 08:53:00
3:53 AM,28.9,24.1,82,30.08,10.0,South,8.1,-,N/A,,Partly Cloudy,170,2013-03-03 09:53:00
4:53 AM,28.9,24.1,82,30.05,10.0,South,6.9,-,N/A,,Partly Cloudy,170,2013-03-03 10:53:00
5:53 AM,26.6,23.0,86,30.00,10.0,SSE,6.9,-,N/A,,Partly Cloudy,160,2013-03-03 11:53:00
6:53 AM,28.9,24.1,82,30.01,10.0,South,9.2,-,N/A,,Partly Cloudy,170,2013-03-03 12:53:00
7:53 AM,30.9,26.1,82,30.00,8.0,SSE,10.4,-,N/A,,Partly Cloudy,160,2013-03-03 13:53:00
8:53 AM,35.1,28.9,78,29.99,8.0,South,11.5,-,N/A,,Scattered Clouds,170,2013-03-03 14:53:00
9:53 AM,37.9,30.0,73,29.96,9.0,South,13.8,-,N/A,,Scattered Clouds,180,2013-03-03 15:53:00
10:53 AM,39.9,30.9,70,29.94,9.0,South,13.8,-,N/A,,Mostly Cloudy,190,2013-03-03 16:53:00
11:53 AM,43.0,33.1,68,29.91,9.0,South,15.0,-,N/A,,Mostly Cloudy,180,2013-03-03 17:53:00
12:53 PM,46.0,35.1,66,29.86,10.0,SSE,9.2,-,N/A,,Mostly Cloudy,150,2013-03-03 18:53:00
1:53 PM,48.9,36.0,61,29.81,10.0,SSE,11.5,-,N/A,,Mostly Cloudy,160,2013-03-03 19:53:00
2:53 PM,52.0,37.9,59,29.77,10.0,SSE,9.2,-,N/A,,Overcast,150,2013-03-03 20:53:00
3:53 PM,54.0,37.0,53,29.73,10.0,SE,11.5,-,N/A,,Overcast,140,2013-03-03 21:53:00
4:53 PM,53.1,37.0,55,29.72,10.0,SSE,9.2,-,N/A,,Overcast,150,2013-03-03 22:53:00
5:53 PM,53.1,35.1,50,29.70,10.0,SE,13.8,-,N/A,,Overcast,140,2013-03-03 23:53:00
6:53 PM,51.1,35.1,54,29.70,10.0,SE,11.5,-,N/A,,Overcast,130,2013-03-04 00:53:00
7:53 PM,50.0,34.0,54,29.69,10.0,SE,12.7,-,N/A,,Mostly Cloudy,140,2013-03-04 01:53:00
8:53 PM,50.0,34.0,54,29.67,10.0,SE,15.0,-,N/A,,Mostly Cloudy,140,2013-03-04 02:53:00
9:53 PM,48.0,34.0,58,29.66,10.0,SE,9.2,-,N/A,,Scattered Clouds,130,2013-03-04 03:53:00
10:53 PM,48.0,34.0,58,29.64,10.0,SE,11.5,-,N/A,,Scattered Clouds,140,2013-03-04 04:53:00
11:53 PM,46.0,33.1,61,29.62,10.0,SE,9.2,-,N/A,,Mostly Cloudy,130,2013-03-04 05:53:00